When you browse on this site, cookies collect data to enhance your experience and personalize the content and advertising you see.
Visit our Privacy Policy to learn more. By continuing to use the site, you agree to this use of cookies and data.
  • In Austria
  • List of Countries
  • For 7 days
  • Water Temperature
  • Satellite Maps
  • Weather Map
  • News
  • Weather Widgets
  • user-avatar
    Login

    Hourly Weather Trumbull

    Today, 23 July, Tuesday

    Time Temperature Precipitation Wind Pressure Humidity
    00:00 +20°C° 3 mm 2 mps 750 mmHg 94%
    01:00 +20°C° 3 mm 2 mps 750 mmHg 94%
    02:00 +20°C° 2 mm 2 mps 750 mmHg 94%
    03:00 +20°C° 2 mm 2 mps 750 mmHg 94%
    04:00 +20°C° 2 mm 2 mps 750 mmHg 95%
    05:00 +20°C° 4.3 mm 3 mps 750 mmHg 95%
    06:00 +20°C° 4.3 mm 3 mps 750 mmHg 95%
    07:00 +20°C° 4.3 mm 4 mps 750 mmHg 95%
    08:00 +20°C° 0.8 mm 4 mps 750 mmHg 91%
    09:00 +21°C° 0.8 mm 3 mps 750 mmHg 87%
    10:00 +22°C° 0.8 mm 3 mps 750 mmHg 83%
    11:00 +23°C° 0.9 mm 2 mps 751 mmHg 86%
    12:00 +23°C° 0.9 mm 2 mps 751 mmHg 88%
    13:00 +21°C° 0.9 mm 2 mps 751 mmHg 91%
    14:00 +21°C° 1.1 mm 2 mps 752 mmHg 91%
    15:00 +22°C° 1.1 mm 1 mps 752 mmHg 92%
    16:00 +22°C° 1.1 mm 1 mps 752 mmHg 92%
    17:00 +21°C° 0.5 mm 2 mps 752 mmHg 93%
    18:00 +20°C° 0.5 mm 2 mps 752 mmHg 93%
    19:00 +20°C° 0.5 mm 2 mps 753 mmHg 93%
    20:00 +20°C° 0.3 mm 2 mps 753 mmHg 93%
    21:00 +20°C° 0.3 mm 3 mps 753 mmHg 93%
    22:00 +20°C° 0.3 mm 3 mps 753 mmHg 93%
    23:00 +20°C° 0.2 mm 3 mps 752 mmHg 93%

    Tomorrow, 24 July, Wednesday

    Time Temperature Precipitation Wind Pressure Humidity
    00:00 +20°C° 0.2 mm 3 mps 752 mmHg 93%
    01:00 +19°C° 0.2 mm 3 mps 752 mmHg 93%
    02:00 +19°C° 0.4 mm 3 mps 752 mmHg 93%
    03:00 +19°C° 0.4 mm 4 mps 752 mmHg 93%
    04:00 +19°C° 0.4 mm 4 mps 752 mmHg 93%
    05:00 +19°C° 0 mm 3 mps 752 mmHg 92%
    06:00 +19°C° 0 mm 3 mps 753 mmHg 90%
    07:00 +20°C° 0 mm 3 mps 753 mmHg 89%
    08:00 +22°C° 0 mm 3 mps 754 mmHg 77%
    09:00 +24°C° 0 mm 3 mps 754 mmHg 66%
    10:00 +26°C° 0 mm 3 mps 754 mmHg 54%
    11:00 +27°C° 0 mm 2 mps 754 mmHg 51%
    12:00 +28°C° 0 mm 2 mps 754 mmHg 48%
    13:00 +29°C° 0 mm 2 mps 754 mmHg 45%
    14:00 +29°C° 0 mm 2 mps 754 mmHg 45%
    15:00 +29°C° 0 mm 2 mps 754 mmHg 45%
    16:00 +28°C° 0 mm 2 mps 754 mmHg 46%
    17:00 +27°C° 0 mm 2 mps 754 mmHg 51%
    18:00 +25°C° 0 mm 2 mps 755 mmHg 57%
    19:00 +24°C° 0 mm 1 mps 755 mmHg 62%
    20:00 +23°C° 0 mm 1 mps 755 mmHg 64%
    21:00 +22°C° 0 mm 1 mps 756 mmHg 65%
    22:00 +22°C° 0 mm 1 mps 756 mmHg 67%
    23:00 +21°C° 0 mm 1 mps 756 mmHg 66%

    Day after tomorrow, 25 July, Thursday

    Time Temperature Precipitation Wind Pressure Humidity
    00:00 +20°C° 0 mm 2 mps 756 mmHg 65%
    01:00 +19°C° 0 mm 2 mps 756 mmHg 64%
    02:00 +19°C° 0 mm 2 mps 757 mmHg 66%
    03:00 +18°C° 0 mm 2 mps 757 mmHg 68%
    04:00 +18°C° 0 mm 2 mps 757 mmHg 70%
    05:00 +19°C° 0 mm 2 mps 757 mmHg 68%
    06:00 +20°C° 0 mm 2 mps 758 mmHg 66%
    07:00 +21°C° 0 mm 2 mps 758 mmHg 64%
    08:00 +24°C° 0 mm 2 mps 758 mmHg 57%
    09:00 +26°C° 0 mm 1 mps 758 mmHg 50%
    10:00 +29°C° 0 mm 1 mps 759 mmHg 44%
    11:00 +29°C° 0 mm 1 mps 758 mmHg 41%
    12:00 +30°C° 0 mm 1 mps 758 mmHg 39%
    13:00 +30°C° 0 mm 1 mps 758 mmHg 37%
    14:00 +30°C° 0 mm 2 mps 758 mmHg 38%
    15:00 +30°C° 0 mm 2 mps 758 mmHg 39%
    16:00 +30°C° 0 mm 2 mps 758 mmHg 41%
    17:00 +28°C° 0 mm 2 mps 759 mmHg 48%
    18:00 +27°C° 0 mm 2 mps 759 mmHg 55%
    19:00 +25°C° 0 mm 2 mps 760 mmHg 62%
    20:00 +24°C° 0 mm 2 mps 760 mmHg 64%
    21:00 +24°C° 0 mm 2 mps 760 mmHg 66%
    22:00 +23°C° 0 mm 2 mps 760 mmHg 68%
    23:00 +23°C° 0 mm 2 mps 761 mmHg 71%

    26 July, Friday

    Time Temperature Precipitation Wind Pressure Humidity
    00:00 +21°C° 0 mm 2 mps 761 mmHg 73%
    01:00 +22°C° 0 mm 1 mps 761 mmHg 76%
    02:00 +22°C° 0 mm 1 mps 761 mmHg 78%
    03:00 +21°C° 0 mm 1 mps 761 mmHg 79%
    04:00 +21°C° 0 mm 1 mps 761 mmHg 80%
    05:00 +22°C° 0 mm 1 mps 761 mmHg 76%
    06:00 +23°C° 0 mm 1 mps 762 mmHg 72%
    07:00 +24°C° 0 mm 1 mps 762 mmHg 67%
    08:00 +26°C° 0 mm 1 mps 762 mmHg 61%
    09:00 +29°C° 0 mm 1 mps 762 mmHg 54%
    10:00 +29°C° 0 mm 0 mps 763 mmHg 47%
    11:00 +31°C° 0 mm 1 mps 762 mmHg 44%
    12:00 +32°C° 0 mm 1 mps 762 mmHg 41%
    13:00 +32°C° 0 mm 2 mps 762 mmHg 37%
    14:00 +32°C° 0 mm 2 mps 762 mmHg 39%
    15:00 +32°C° 0 mm 2 mps 762 mmHg 40%
    16:00 +32°C° 0 mm 2 mps 762 mmHg 41%
    17:00 +30°C° 0 mm 3 mps 762 mmHg 47%
    18:00 +28°C° 0 mm 3 mps 762 mmHg 53%
    19:00 +27°C° 0 mm 3 mps 762 mmHg 59%
    20:00 +26°C° 0 mm 3 mps 762 mmHg 63%
    21:00 +25°C° 0 mm 3 mps 763 mmHg 67%
    22:00 +25°C° 0 mm 3 mps 763 mmHg 70%
    23:00 +24°C° 0 mm 3 mps 763 mmHg 73%

    27 July, Saturday

    Time Temperature Precipitation Wind Pressure Humidity
    00:00 +24°C° 0 mm 2 mps 763 mmHg 77%
    01:00 +24°C° 0 mm 2 mps 763 mmHg 80%
    02:00 +23°C° 0 mm 2 mps 763 mmHg 80%
    03:00 +23°C° 0 mm 2 mps 763 mmHg 81%
    04:00 +23°C° 0 mm 2 mps 763 mmHg 81%
    05:00 +24°C° 0 mm 2 mps 763 mmHg 78%
    06:00 +25°C° 0 mm 1 mps 764 mmHg 74%
    07:00 +26°C° 0 mm 1 mps 764 mmHg 70%
    08:00 +28°C° 0 mm 2 mps 764 mmHg 63%
    09:00 +29°C° 0 mm 2 mps 764 mmHg 56%
    10:00 +31°C° 0 mm 2 mps 764 mmHg 49%
    11:00 +31°C° 0 mm 2 mps 764 mmHg 47%
    12:00 +32°C° 0 mm 2 mps 763 mmHg 45%
    13:00 +32°C° 0 mm 2 mps 763 mmHg 42%
    14:00 +33°C° 0 mm 3 mps 763 mmHg 43%
    15:00 +33°C° 0 mm 3 mps 763 mmHg 45%
    16:00 +33°C° 0 mm 4 mps 762 mmHg 46%
    17:00 +30°C° 0 mm 4 mps 762 mmHg 51%
    18:00 +29°C° 0 mm 4 mps 762 mmHg 57%
    19:00 +27°C° 0 mm 4 mps 762 mmHg 62%
    20:00 +26°C° 0 mm 4 mps 762 mmHg 62%
    21:00 +26°C° 0 mm 4 mps 763 mmHg 62%
    22:00 +25°C° 0 mm 3 mps 763 mmHg 63%
    23:00 +25°C° 0 mm 3 mps 763 mmHg 65%

    28 July, Sunday

    Time Temperature Precipitation Wind Pressure Humidity
    00:00 +24°C° 0 mm 3 mps 762 mmHg 67%
    01:00 +24°C° 0 mm 2 mps 762 mmHg 69%
    02:00 +23°C° 0 mm 2 mps 762 mmHg 70%
    03:00 +23°C° 0 mm 2 mps 762 mmHg 72%
    04:00 +23°C° 0 mm 2 mps 762 mmHg 74%
    05:00 +24°C° 0 mm 2 mps 762 mmHg 72%
    06:00 +24°C° 0 mm 2 mps 762 mmHg 70%
    07:00 +25°C° 0 mm 2 mps 762 mmHg 68%
    08:00 +27°C° 0 mm 2 mps 762 mmHg 61%
    09:00 +29°C° 0 mm 2 mps 762 mmHg 55%
    10:00 +31°C° 0 mm 2 mps 761 mmHg 48%
    11:00 +31°C° 0 mm 2 mps 761 mmHg 44%
    12:00 +32°C° 0 mm 2 mps 761 mmHg 41%
    13:00 +34°C° 0 mm 2 mps 760 mmHg 38%
    14:00 +34°C° 0 mm 3 mps 760 mmHg 38%
    15:00 +34°C° 0 mm 3 mps 760 mmHg 39%
    16:00 +33°C° 0 mm 4 mps 759 mmHg 39%
    17:00 +32°C° 0 mm 4 mps 759 mmHg 47%
    18:00 +29°C° 0 mm 4 mps 759 mmHg 54%
    19:00 +27°C° 0 mm 4 mps 759 mmHg 61%
    20:00 +27°C° 0 mm 4 mps 759 mmHg 62%
    21:00 +26°C° 0 mm 4 mps 759 mmHg 63%
    22:00 +25°C° 0 mm 4 mps 759 mmHg 64%
    23:00 +25°C° 0 mm 3 mps 759 mmHg 67%
    Show more